SITRO-AIS 8 (ANOKHIN)

Last updated on Thu Nov 21 2024 00:03:40 GMT+0000 (Coordinated Universal Time)

1 57193U 23091AD 24325.57969169 .00016231 00000+0 88776-3 0 9999 2 57193 97.5901 16.9390 0014606 309.1880 50.8054 15.14256504 77124
UTC large
Height (km)
Speed (km/s)
/
Latitude / Longitude
Inclination (degrees)
Orbital Period (minutes)
Azimuth
Elevation
Range (km)
Doppler Factor

Next 0 passes for location: London (51.5072 / 0.1276)

Sorry there are no passes over London.